Location: Los Ranchitos
(37.9930°N, 122.5425°W)
Time: 02:56:56
(UTC+00:00)

NOSS 3-4 (A) - Pass Details

Date: 21 September 2020
Orbit: 885 x 1327 km, 63.4° (Epoch: 23 October)

Event Time Altitude Azimuth Distance (km) Brightness Sun altitude
Rises 04:06:58 0° 204° (SSW) 3,474 6.4 -23.5°
Reaches altitude 10° 04:09:25 10° 202° (SSW) 2,536 5.7 -24.0°
Maximum altitude 04:15:12 70° 119° (ESE) 954 3.2 -25.1°
Enters shadow 04:18:11 31° 44° (NE) 1,556 4.3 -25.6°
Exits shadow 04:21:04 11° 37° (NE) 2,576 5.6 -26.1°
Drops below altitude 10° 04:21:18 10° 37° (NE) 2,667 5.6 -26.2°
Sets 04:23:57 0° 35° (NE) 3,667 6.4 -26.6°
